Regional Weather Roundup
Issued by NWS

Home | Current Version | Previous Version | Text Only | Print | Product List | Glossary Off
Versions: 1 2 3 4 5 6 7 8 9 10 11 12 13 14 15 16 17 18 19 20 21 22 23 24 25 26 27 28 29 30 31 32 33 34 35 36 37 38 39 40 41 42 43 44 45 46 47 48 49 50

000
ASUS43 KOAX 251102
RWRNE

WEATHER ROUNDUP FOR NEBRASKA
NATIONAL WEATHER SERVICE OMAHA NE
600 AM CDT SUN SEP 25 2016

NOTES: SATELLITE DATA IS BEING USED TO AUGMENT CLOUD COVER ABOVE
       12000 FEET.
       "FAIR" INDICATES FEW OR NO CLOUDS BELOW 12,000 FEET WITH NO
       SIGNIFICANT WEATHER AND/OR OBSTRUCTIONS TO VISIBILITY.

  * THESE STATIONS DO NOT REPORT WEATHER SUCH AS RAIN...SNOW OR FOG.

NEZ001>004-019>022-054>056-251200-
NEBRASKA PANHANDLE

CITY           SKY/WX    TMP DP  RH WIND       PRES   REMARKS
SCOTTSBLUFF    CLEAR     42  38  85 NW7       30.34R
ALLIANCE       CLEAR     43  40  89 W14       30.28R
CHADRON        CLEAR     49  41  74 W14       30.27R
KIMBALL        CLEAR     42  38  85 NW10      30.36R
SIDNEY         CLEAR     44  37  76 NW12      30.34R
$$

NEZ057>060-069>072-079>082-251200-
SOUTHWEST NEBRASKA

CITY           SKY/WX    TMP DP  RH WIND       PRES   REMARKS
NORTH PLATTE   CLEAR     50  42  74 W10       30.24R
IMPERIAL       CLEAR     48  39  71 NW15      30.27R
LEXINGTON      CLEAR     50  42  75 NW12      30.19R
MCCOOK         CLEAR     51  42  71 W6        30.24R
OGALLALA       CLEAR     47  42  81 W6        30.28R
$$

NEZ005>010-023>029-035>040-094-251200-
NORTH CENTRAL NEBRASKA

CITY           SKY/WX    TMP DP  RH WIND       PRES   REMARKS
VALENTINE      PTCLDY    53  42  66 W14       30.15R
AINSWORTH      PTCLDY    54  44  69 NW16G24   30.13F
BROKEN BOW     CLEAR     52  42  69 W14G23    30.16R
O`NEILL        CLEAR     54  42  65 W12G18    30.10R
ORD            CLEAR     52  41  66 NW9       30.14R
THEDFORD       CLEAR     50  42  76 W8        30.21R
$$

NEZ041-046>049-061>064-073>077-083>087-251200-
SOUTH CENTRAL NEBRASKA

CITY           SKY/WX    TMP DP  RH WIND       PRES   REMARKS
GRAND ISLAND   CLEAR     53  43  68 NW7       30.14R
AURORA         PTCLDY    55  46  72 NW12      30.13R
HASTINGS       CLEAR     54  43  66 NW10      30.15R
HEBRON         CLOUDY    55  49  81 CALM      30.13R
HOLDREGE       CLEAR     53  42  65 NW9       30.17R
KEARNEY *      CLEAR     52  39  62 NW10      30.16R
YORK           PTCLDY    54  46  76 NW10      30.12R
$$

NEZ011>018-030>034-042>045-251200-
NORTHEAST NEBRASKA

CITY           SKY/WX    TMP DP  RH WIND       PRES   REMARKS
NORFOLK        CLEAR     52  44  74 W9        30.08R
ALBION         CLEAR     52  44  73 NW7       30.11R
BLAIR          CLOUDY    59  51  76 NW6       30.06R
FREMONT        CLOUDY    57  50  77 W8        30.08R
TEKAMAH        CLOUDY    58  50  75 NW8       30.06R
WAYNE          CLOUDY    52  47  82 W5        30.07R
$$

NEZ050>053-065>068-078-088>093-251200-
SOUTHEAST NEBRASKA

CITY           SKY/WX    TMP DP  RH WIND       PRES   REMARKS
LINCOLN        MOCLDY    60  49  66 NW9       30.10R
OMAHA EPPLEY   CLOUDY    60  51  72 NW9       30.06R
BEATRICE       CLOUDY    58  53  82 NW6       30.10R
FALLS CITY     HVY RAIN  69  68  96 W9        30.03R FOG
NEBRASKA CITY  DRIZZLE   64  61  91 NW9       30.06R
PLATTSMOUTH    CLOUDY    60  52  77 W8        30.06R
$$

NEZ044-045-051>053-067-251200-
OMAHA AREA

CITY           SKY/WX    TMP DP  RH WIND       PRES   REMARKS
OMAHA EPPLEY   CLOUDY    60  51  72 NW9       30.06R
BLAIR          CLOUDY    59  51  76 NW6       30.06R
FREMONT        CLOUDY    57  50  77 W8        30.08R
MILLARD        MOCLDY    61  53  74 NW8       30.07R
OFFUTT AFB     CLOUDY    61  53  74 NW10      30.05R
PLATTSMOUTH    CLOUDY    60  52  77 W8        30.06R
WAHOO          PTSUNNY   58  50  75 NW3       30.09R
$$



USA.gov is the U.S. government's official web portal to all federal, state and local government web resources and services.